,,,PA_Meas_PMT16A,,PR_Meas_QMR101_102,,RH_Meas_QMH101,,SR_Meas_QMS101,,TA_Meas_QMH101,,GenWind,,GenWind,
date,time,status,PA,status,PR,status,RH,status,SR,status,TA,status,DirAvg,status,SpdAvg,
2009-05-02, 00:00:04,VALID,1010.89,VALID,0,VALID,79.3765,VALID,0.105969,VALID,23.8091,VALID,287,VALID,0,
2009-05-02, 00:01:04,VALID,1010.89,VALID,0,VALID,79.4146,VALID,0.105969,VALID,23.7878,VALID,287,VALID,0,
2009-05-02, 00:02:04,VALID,1010.84,VALID,0,VALID,79.4756,VALID,0.105969,VALID,23.8091,VALID,287,VALID,0,
2009-05-02, 00:03:04,VALID,1010.81,VALID,0,VALID,79.5061,VALID,0.105969,VALID,23.7896,VALID,287,VALID,0,
2009-05-02, 00:04:04,VALID,1010.79,VALID,0,VALID,79.5671,VALID,0,VALID,23.7896,VALID,287,VALID,0,
2009-05-02, 00:05:04,VALID,1010.77,VALID,0,VALID,79.5747,VALID,0.105969,VALID,23.7896,VALID,287,VALID,0,
2009-05-02, 00:06:04,VALID,1010.78,VALID,0,VALID,79.5976,VALID,0.105969,VALID,23.7701,VALID,287,VALID,0,
2009-05-02, 00:07:04,VALID,1010.79,VALID,0,VALID,79.6052,VALID,0.105969,VALID,23.7294,VALID,287,VALID,0,
2009-05-02, 00:08:04,VALID,1010.8,VALID,0,VALID,79.59,VALID,0,VALID,23.7507,VALID,287,VALID,0,
2009-05-02, 00:09:04,VALID,1010.78,VALID,0,VALID,79.5976,VALID,0.105969,VALID,23.7312,VALID,287,VALID,0,
2009-05-02, 00:10:04,VALID,1010.79,VALID,0,VALID,79.6205,VALID,0,VALID,23.7507,VALID,319,VALID,0.16875,
2009-05-02, 00:11:04,VALID,1010.79,VALID,0,VALID,79.6281,VALID,0.105969,VALID,23.7507,VALID,319,VALID,0.181641,
2009-05-02, 00:12:04,VALID,1010.79,VALID,0,VALID,79.6586,VALID,0.105969,VALID,23.7312,VALID,352,VALID,0.430859,
2009-05-02, 00:13:04,VALID,1010.8,VALID,0,VALID,79.6281,VALID,0.105969,VALID,23.7312,VALID,16,VALID,0.233203,
2009-05-02, 00:14:04,VALID,1010.8,VALID,0,VALID,79.6586,VALID,0.105969,VALID,23.7312,VALID,16,VALID,0.0328125,
2009-05-02, 00:15:04,VALID,1010.8,VALID,0,VALID,79.6586,VALID,0,VALID,23.7312,VALID,16,VALID,0,
2009-05-02, 00:16:04,VALID,1010.76,VALID,0,VALID,79.6662,VALID,0,VALID,23.7135,VALID,16,VALID,0,
2009-05-02, 00:17:04,VALID,1010.78,VALID,0,VALID,79.6739,VALID,0,VALID,23.7135,VALID,16,VALID,0,
2009-05-02, 00:18:04,VALID,1010.76,VALID,0,VALID,79.6662,VALID,0,VALID,23.7135,VALID,16,VALID,0,
2009-05-02, 00:19:04,VALID,1010.76,VALID,0,VALID,79.6739,VALID,0,VALID,23.694,VALID,16,VALID,0,
2009-05-02, 00:20:04,VALID,1010.71,VALID,0,VALID,79.6662,VALID,0,VALID,23.694,VALID,16,VALID,0,
2009-05-02, 00:21:04,VALID,1010.67,VALID,0,VALID,79.6815,VALID,0,VALID,23.6727,VALID,16,VALID,0,
2009-05-02, 00:22:04,VALID,1010.64,VALID,0,VALID,79.6739,VALID,0,VALID,23.655,VALID,16,VALID,0,
2009-05-02, 00:23:04,VALID,1010.59,VALID,0,VALID,79.6815,VALID,0,VALID,23.6356,VALID,16,VALID,0,
2009-05-02, 00:24:04,VALID,1010.59,VALID,0,VALID,79.6662,VALID,0,VALID,23.5948,VALID,16,VALID,0,
2009-05-02, 00:25:04,VALID,1010.56,VALID,0,VALID,79.6815,VALID,0,VALID,23.5771,VALID,16,VALID,0,
2009-05-02, 00:26:04,VALID,1010.56,VALID,0,VALID,79.6739,VALID,0.105969,VALID,23.5771,VALID,16,VALID,0,
2009-05-02, 00:27:04,VALID,1010.54,VALID,0,VALID,79.6586,VALID,0,VALID,23.5771,VALID,16,VALID,0,
2009-05-02, 00:28:04,VALID,1010.56,VALID,0,VALID,79.651,VALID,0,VALID,23.5576,VALID,16,VALID,0,
2009-05-02, 00:29:04,VALID,1010.56,VALID,0,VALID,79.6815,VALID,0.105969,VALID,23.5771,VALID,16,VALID,0,
2009-05-02, 00:30:04,VALID,1010.57,VALID,0,VALID,79.6815,VALID,0.105969,VALID,23.5558,VALID,16,VALID,0,
2009-05-02, 00:31:04,VALID,1010.54,VALID,0,VALID,79.6739,VALID,0,VALID,23.5771,VALID,16,VALID,0,
2009-05-02, 00:32:04,VALID,1010.57,VALID,0,VALID,79.6891,VALID,0,VALID,23.5558,VALID,16,VALID,0,
2009-05-02, 00:33:04,VALID,1010.57,VALID,0,VALID,79.7044,VALID,0,VALID,23.5753,VALID,16,VALID,0,
2009-05-02, 00:34:04,VALID,1010.57,VALID,0,VALID,79.6891,VALID,0,VALID,23.5753,VALID,16,VALID,0.157813,
2009-05-02, 00:35:04,VALID,1010.52,VALID,0,VALID,79.7272,VALID,0,VALID,23.5753,VALID,16,VALID,0.430078,
2009-05-02, 00:36:04,VALID,1010.5,VALID,0,VALID,79.7349,VALID,0,VALID,23.5576,VALID,16,VALID,0.505469,
2009-05-02, 00:37:04,VALID,1010.5,VALID,0,VALID,79.7501,VALID,0,VALID,23.5363,VALID,16,VALID,0.464063,
2009-05-02, 00:38:04,VALID,1010.51,VALID,0,VALID,79.7425,VALID,0,VALID,23.5186,VALID,16,VALID,0.289453,
2009-05-02, 00:39:04,VALID,1010.47,VALID,0,VALID,79.7349,VALID,0,VALID,23.4974,VALID,16,VALID,0.394141,
2009-05-02, 00:40:04,VALID,1010.48,VALID,0,VALID,79.7349,VALID,0,VALID,23.5381,VALID,16,VALID,0.398438,
2009-05-02, 00:41:04,VALID,1010.46,VALID,0,VALID,79.7501,VALID,0,VALID,23.5169,VALID,18,VALID,0.198437,
2009-05-02, 00:42:04,VALID,1010.48,VALID,0,VALID,79.7501,VALID,0,VALID,23.5186,VALID,18,VALID,0.151953,
2009-05-02, 00:43:04,VALID,1010.45,VALID,0,VALID,79.7501,VALID,0,VALID,23.4584,VALID,18,VALID,0,
2009-05-02, 00:44:04,VALID,1010.41,VALID,0,VALID,79.773,VALID,0,VALID,23.4797,VALID,18,VALID,0,
2009-05-02, 00:45:04,VALID,1010.39,VALID,0,VALID,79.7425,VALID,0,VALID,23.4602,VALID,18,VALID,0,
2009-05-02, 00:46:04,VALID,1010.38,VALID,0,VALID,79.773,VALID,0,VALID,23.4389,VALID,18,VALID,0,
2009-05-02, 00:47:04,VALID,1010.37,VALID,0,VALID,79.7654,VALID,0,VALID,23.4797,VALID,18,VALID,0,
2009-05-02, 00:48:04,VALID,1010.39,VALID,0,VALID,79.7654,VALID,0,VALID,23.4602,VALID,18,VALID,0,
2009-05-02, 00:49:04,VALID,1010.4,VALID,0,VALID,79.7654,VALID,0.105969,VALID,23.4779,VALID,18,VALID,0,
2009-05-02, 00:50:04,VALID,1010.38,VALID,0,VALID,79.7654,VALID,0,VALID,23.4779,VALID,18,VALID,0,
2009-05-02, 00:51:04,VALID,1010.37,VALID,0,VALID,79.7654,VALID,0,VALID,23.4974,VALID,18,VALID,0,
2009-05-02, 00:52:04,VALID,1010.37,VALID,0,VALID,79.7654,VALID,0,VALID,23.4992,VALID,18,VALID,0,
2009-05-02, 00:53:04,VALID,1010.35,VALID,0,VALID,79.7806,VALID,0,VALID,23.5186,VALID,18,VALID,0,
2009-05-02, 00:54:04,VALID,1010.33,VALID,0,VALID,79.7578,VALID,0,VALID,23.4992,VALID,18,VALID,0,
2009-05-02, 00:55:04,VALID,1010.29,VALID,0,VALID,79.7806,VALID,0,VALID,23.4602,VALID,18,VALID,0,
2009-05-02, 00:56:04,VALID,1010.25,VALID,0,VALID,79.7883,VALID,0,VALID,23.4389,VALID,18,VALID,0,
2009-05-02, 00:57:04,VALID,1010.21,VALID,0,VALID,79.7883,VALID,0,VALID,23.4797,VALID,18,VALID,0,
2009-05-02, 00:58:04,VALID,1010.17,VALID,0,VALID,79.7806,VALID,0,VALID,23.4389,VALID,18,VALID,0,
2009-05-02, 00:59:04,VALID,1010.17,VALID,0,VALID,79.7806,VALID,0,VALID,23.4212,VALID,18,VALID,0,
2009-05-02, 01:00:04,VALID,1010.15,VALID,0,VALID,79.7959,VALID,0,VALID,23.4017,VALID,18,VALID,0,
2009-05-02, 01:01:04,VALID,1010.15,VALID,0,VALID,79.8035,VALID,0,VALID,23.4017,VALID,18,VALID,0,
2009-05-02, 01:02:04,VALID,1010.11,VALID,0,VALID,79.7959,VALID,0,VALID,23.3628,VALID,18,VALID,0,
2009-05-02, 01:03:04,VALID,1010.07,VALID,0,VALID,79.7883,VALID,0,VALID,23.3805,VALID,18,VALID,0,
2009-05-02, 01:04:04,VALID,1010.07,VALID,0,VALID,79.7959,VALID,0,VALID,23.4212,VALID,18,VALID,0,
2009-05-02, 01:05:04,VALID,1010.07,VALID,0,VALID,79.7806,VALID,0,VALID,23.4194,VALID,18,VALID,0,
2009-05-02, 01:06:04,VALID,1010.05,VALID,0,VALID,79.7959,VALID,0,VALID,23.4407,VALID,18,VALID,0,
2009-05-02, 01:07:04,VALID,1010.08,VALID,0,VALID,79.7959,VALID,0,VALID,23.4584,VALID,18,VALID,0,
2009-05-02, 01:08:04,VALID,1010.06,VALID,0,VALID,79.8035,VALID,0,VALID,23.4992,VALID,18,VALID,0,
2009-05-02, 01:09:04,VALID,1010.08,VALID,0,VALID,79.7883,VALID,0,VALID,23.4779,VALID,18,VALID,0,
2009-05-02, 01:10:04,VALID,1010.04,VALID,0,VALID,79.8035,VALID,0,VALID,23.4992,VALID,18,VALID,0,
2009-05-02, 01:11:04,VALID,1010.04,VALID,0,VALID,79.8035,VALID,0,VALID,23.4797,VALID,18,VALID,0,
2009-05-02, 01:12:04,VALID,1010.01,VALID,0,VALID,79.834,VALID,0,VALID,23.4,VALID,18,VALID,0,
2009-05-02, 01:13:04,VALID,1010,VALID,0,VALID,79.7425,VALID,0,VALID,23.4407,VALID,89,VALID,0,
2009-05-02, 01:14:04,VALID,1010.01,VALID,0,VALID,79.8111,VALID,0,VALID,23.4407,VALID,89,VALID,0,
2009-05-02, 01:15:04,VALID,1009.99,VALID,0,VALID,79.8035,VALID,0.105969,VALID,23.4584,VALID,89,VALID,0,
2009-05-02, 01:16:04,VALID,1010.02,VALID,0,VALID,79.7883,VALID,0.105969,VALID,23.4194,VALID,89,VALID,0,
2009-05-02, 01:17:04,VALID,1010.01,VALID,0,VALID,79.8035,VALID,0.105969,VALID,23.4177,VALID,89,VALID,0,
2009-05-02, 01:18:04,VALID,1010.01,VALID,0,VALID,79.7883,VALID,0.105969,VALID,23.4389,VALID,90,VALID,0,
2009-05-02, 01:19:04,VALID,1010,VALID,0,VALID,79.7959,VALID,0,VALID,23.4584,VALID,90,VALID,0,
2009-05-02, 01:20:04,VALID,1010.01,VALID,0,VALID,79.8035,VALID,0.105969,VALID,23.4779,VALID,90,VALID,0,
2009-05-02, 01:21:04,VALID,1009.97,VALID,0,VALID,79.8035,VALID,0.105969,VALID,23.4779,VALID,90,VALID,0,
2009-05-02, 01:22:04,VALID,1009.97,VALID,0,VALID,79.7959,VALID,0,VALID,23.4779,VALID,90,VALID,0,
2009-05-02, 01:23:04,VALID,1009.94,VALID,0,VALID,79.7959,VALID,0.105969,VALID,23.4584,VALID,90,VALID,0,
2009-05-02, 01:24:04,VALID,1009.92,VALID,0,VALID,79.7883,VALID,0,VALID,23.4372,VALID,90,VALID,0,
2009-05-02, 01:25:04,VALID,1009.92,VALID,0,VALID,79.7959,VALID,0.105969,VALID,23.4584,VALID,90,VALID,0,
2009-05-02, 01:26:04,VALID,1009.94,VALID,0,VALID,79.8035,VALID,0.105969,VALID,23.4992,VALID,85,VALID,0,
2009-05-02, 01:27:04,VALID,1009.96,VALID,0,VALID,79.7959,VALID,0,VALID,23.4974,VALID,9,VALID,0,
2009-05-02, 01:28:04,VALID,1009.96,VALID,0,VALID,79.773,VALID,0.105969,VALID,23.4974,VALID,9,VALID,0,
2009-05-02, 01:29:04,VALID,1009.97,VALID,0,VALID,79.7883,VALID,0.105969,VALID,23.4974,VALID,10,VALID,0.0675781,
2009-05-02, 01:30:04,VALID,1009.95,VALID,0,VALID,79.7883,VALID,0,VALID,23.5186,VALID,22,VALID,0.464844,
2009-05-02, 01:31:04,VALID,1009.92,VALID,0,VALID,79.7883,VALID,0,VALID,23.4602,VALID,60,VALID,0.577734,
2009-05-02, 01:32:04,VALID,1009.92,VALID,0,VALID,79.7883,VALID,0,VALID,23.4602,VALID,62,VALID,0.557422,
2009-05-02, 01:33:04,VALID,1009.89,VALID,0,VALID,79.7883,VALID,0,VALID,23.4797,VALID,68,VALID,0.600391,
2009-05-02, 01:34:04,VALID,1009.86,VALID,0,VALID,79.7806,VALID,0,VALID,23.4797,VALID,85,VALID,0.539063,
2009-05-02, 01:35:04,VALID,1009.85,VALID,0,VALID,79.7959,VALID,0,VALID,23.4407,VALID,89,VALID,0.125,
2009-05-02, 01:36:04,VALID,1009.81,VALID,0,VALID,79.7883,VALID,0,VALID,23.4602,VALID,89,VALID,0.130469,
2009-05-02, 01:37:04,VALID,1009.82,VALID,0,VALID,79.7883,VALID,0,VALID,23.4602,VALID,89,VALID,0.444531,
2009-05-02, 01:38:04,VALID,1009.81,VALID,0,VALID,79.7806,VALID,0,VALID,23.4602,VALID,89,VALID,0.392578,
2009-05-02, 01:39:04,VALID,1009.79,VALID,0,VALID,79.773,VALID,0,VALID,23.4797,VALID,91,VALID,0.585156,
2009-05-02, 01:40:04,VALID,1009.78,VALID,0,VALID,79.7578,VALID,0,VALID,23.4797,VALID,91,VALID,0.308594,
2009-05-02, 01:41:04,VALID,1009.8,VALID,0,VALID,79.7349,VALID,0,VALID,23.4797,VALID,91,VALID,0.241797,
2009-05-02, 01:42:04,VALID,1009.81,VALID,0,VALID,79.7425,VALID,0,VALID,23.4992,VALID,91,VALID,0.275,
2009-05-02, 01:43:04,VALID,1009.78,VALID,0,VALID,79.7349,VALID,0,VALID,23.4797,VALID,91,VALID,0,
2009-05-02, 01:44:04,VALID,1009.76,VALID,0,VALID,79.7349,VALID,0,VALID,23.4797,VALID,91,VALID,0,
2009-05-02, 01:45:04,VALID,1009.73,VALID,0,VALID,79.7425,VALID,0,VALID,23.4797,VALID,91,VALID,0,
2009-05-02, 01:46:04,VALID,1009.74,VALID,0,VALID,79.7349,VALID,0,VALID,23.4602,VALID,91,VALID,0,
2009-05-02, 01:47:04,VALID,1009.73,VALID,0,VALID,79.7196,VALID,0,VALID,23.4797,VALID,91,VALID,0,
2009-05-02, 01:48:04,VALID,1009.74,VALID,0,VALID,79.7044,VALID,0,VALID,23.4797,VALID,91,VALID,0,
2009-05-02, 01:49:04,VALID,1009.73,VALID,0,VALID,79.7196,VALID,0,VALID,23.4815,VALID,91,VALID,0,
2009-05-02, 01:50:04,VALID,1009.69,VALID,0,VALID,79.712,VALID,0,VALID,23.4602,VALID,91,VALID,0,
2009-05-02, 01:51:04,VALID,1009.72,VALID,0,VALID,79.6891,VALID,0,VALID,23.4602,VALID,91,VALID,0,
2009-05-02, 01:52:04,VALID,1009.7,VALID,0,VALID,79.7044,VALID,0,VALID,23.4407,VALID,105,VALID,0.399609,
2009-05-02, 01:53:04,VALID,1009.67,VALID,0,VALID,79.6891,VALID,0,VALID,23.4212,VALID,105,VALID,0.259375,
2009-05-02, 01:54:04,VALID,1009.68,VALID,0,VALID,79.6891,VALID,0,VALID,23.4,VALID,105,VALID,0,
2009-05-02, 01:55:04,VALID,1009.67,VALID,0,VALID,79.6891,VALID,0,VALID,23.4017,VALID,105,VALID,0,
2009-05-02, 01:56:04,VALID,1009.67,VALID,0,VALID,79.6739,VALID,0,VALID,23.4017,VALID,105,VALID,0,
2009-05-02, 01:57:04,VALID,1009.64,VALID,0,VALID,79.6739,VALID,0,VALID,23.3823,VALID,105,VALID,0,
2009-05-02, 01:58:04,VALID,1009.59,VALID,0,VALID,79.6662,VALID,0,VALID,23.3823,VALID,105,VALID,0,
2009-05-02, 01:59:04,VALID,1009.59,VALID,0,VALID,79.6586,VALID,0,VALID,23.3823,VALID,105,VALID,0,
2009-05-02, 02:00:04,VALID,1009.58,VALID,0,VALID,79.6357,VALID,0,VALID,23.3805,VALID,115,VALID,0.419141,
2009-05-02, 02:01:04,VALID,1009.55,VALID,0,VALID,79.6357,VALID,0,VALID,23.361,VALID,116,VALID,0.378125,
2009-05-02, 02:02:04,VALID,1009.53,VALID,0,VALID,79.6281,VALID,0,VALID,23.3805,VALID,146,VALID,0.510547,
2009-05-02, 02:03:04,VALID,1009.54,VALID,0,VALID,79.6281,VALID,0,VALID,23.361,VALID,146,VALID,0.460156,
2009-05-02, 02:04:04,VALID,1009.47,VALID,0,VALID,79.5976,VALID,0,VALID,23.4017,VALID,147,VALID,0.458594,
2009-05-02, 02:05:04,VALID,1009.44,VALID,0,VALID,79.5824,VALID,0,VALID,23.4425,VALID,146,VALID,0.469922,
2009-05-02, 02:06:04,VALID,1009.43,VALID,0,VALID,79.59,VALID,0,VALID,23.4212,VALID,146,VALID,0.459766,
2009-05-02, 02:07:04,VALID,1009.42,VALID,0,VALID,79.5976,VALID,0,VALID,23.4212,VALID,146,VALID,0.465234,
2009-05-02, 02:08:04,VALID,1009.43,VALID,0,VALID,79.59,VALID,0,VALID,23.4212,VALID,146,VALID,0.353516,
2009-05-02, 02:09:04,VALID,1009.4,VALID,0,VALID,79.59,VALID,0,VALID,23.4212,VALID,146,VALID,0.205859,
2009-05-02, 02:10:04,VALID,1009.39,VALID,0,VALID,79.5824,VALID,0,VALID,23.4017,VALID,146,VALID,0,
2009-05-02, 02:11:04,VALID,1009.39,VALID,0,VALID,79.5747,VALID,0,VALID,23.4212,VALID,146,VALID,0,
2009-05-02, 02:12:04,VALID,1009.41,VALID,0,VALID,79.5747,VALID,0,VALID,23.4017,VALID,146,VALID,0,
2009-05-02, 02:13:04,VALID,1009.39,VALID,0,VALID,79.5442,VALID,0,VALID,23.3805,VALID,146,VALID,0,
2009-05-02, 02:14:04,VALID,1009.36,VALID,0,VALID,79.5366,VALID,0,VALID,23.3823,VALID,146,VALID,0,
2009-05-02, 02:15:04,VALID,1009.35,VALID,0,VALID,79.529,VALID,0.105969,VALID,23.3805,VALID,146,VALID,0,
2009-05-02, 02:16:04,VALID,1009.33,VALID,0,VALID,79.529,VALID,0.105969,VALID,23.4,VALID,146,VALID,0,
2009-05-02, 02:17:04,VALID,1009.36,VALID,0,VALID,79.529,VALID,0.105969,VALID,23.4,VALID,146,VALID,0,
2009-05-02, 02:18:04,VALID,1009.35,VALID,0,VALID,79.529,VALID,0.105969,VALID,23.3787,VALID,146,VALID,0,
2009-05-02, 02:19:04,VALID,1009.33,VALID,0,VALID,79.5061,VALID,0.105969,VALID,23.4,VALID,146,VALID,0,
2009-05-02, 02:20:04,VALID,1009.32,VALID,0,VALID,79.4832,VALID,0.105969,VALID,23.4,VALID,146,VALID,0,
2009-05-02, 02:21:04,VALID,1009.33,VALID,0,VALID,79.4756,VALID,0.105969,VALID,23.4,VALID,146,VALID,0,
2009-05-02, 02:22:04,VALID,1009.3,VALID,0,VALID,79.4298,VALID,0.105969,VALID,23.4194,VALID,146,VALID,0.00234375,
2009-05-02, 02:23:04,VALID,1009.28,VALID,0,VALID,79.4146,VALID,0.105969,VALID,23.4177,VALID,146,VALID,0,
2009-05-02, 02:24:04,VALID,1009.28,VALID,0,VALID,79.2011,VALID,0.105969,VALID,23.4389,VALID,146,VALID,0,
2009-05-02, 02:25:04,VALID,1009.24,VALID,0,VALID,79.1629,VALID,0.105969,VALID,23.4389,VALID,146,VALID,0,
2009-05-02, 02:26:04,VALID,1009.25,VALID,0,VALID,79.1629,VALID,0.105969,VALID,23.4389,VALID,146,VALID,0,
2009-05-02, 02:27:04,VALID,1009.21,VALID,0,VALID,79.1553,VALID,0.105969,VALID,23.4779,VALID,146,VALID,0,
2009-05-02, 02:28:04,VALID,1009.19,VALID,0,VALID,79.1782,VALID,0.105969,VALID,23.4584,VALID,146,VALID,0,
2009-05-02, 02:29:04,VALID,1009.18,VALID,0,VALID,79.1858,VALID,0.105969,VALID,23.4194,VALID,146,VALID,0,
2009-05-02, 02:30:04,VALID,1009.14,VALID,0,VALID,79.1935,VALID,0,VALID,23.3823,VALID,146,VALID,0,
2009-05-02, 02:31:04,VALID,1009.11,VALID,0,VALID,79.1935,VALID,0,VALID,23.3433,VALID,146,VALID,0,
2009-05-02, 02:32:04,VALID,1009.09,VALID,0,VALID,79.224,VALID,0,VALID,23.2654,VALID,146,VALID,0,
2009-05-02, 02:33:04,VALID,1009.09,VALID,0,VALID,79.224,VALID,0,VALID,23.2636,VALID,146,VALID,0,
2009-05-02, 02:34:04,VALID,1009.06,VALID,0,VALID,79.1935,VALID,0,VALID,23.2848,VALID,146,VALID,0,
2009-05-02, 02:35:04,VALID,1009.07,VALID,0,VALID,79.1935,VALID,0,VALID,23.3433,VALID,137,VALID,0.275391,
2009-05-02, 02:36:04,VALID,1009.06,VALID,0,VALID,79.1858,VALID,0,VALID,23.3823,VALID,137,VALID,0.335156,
2009-05-02, 02:37:04,VALID,1009.05,VALID,0,VALID,79.1706,VALID,0,VALID,23.3823,VALID,72,VALID,0.629297,
2009-05-02, 02:38:04,VALID,1009.08,VALID,0,VALID,79.1553,VALID,0,VALID,23.4017,VALID,46,VALID,0.523438,
2009-05-02, 02:39:04,VALID,1009.06,VALID,0,VALID,79.1706,VALID,0,VALID,23.3823,VALID,43,VALID,0.722656,
2009-05-02, 02:40:04,VALID,1009.07,VALID,0,VALID,79.1858,VALID,0,VALID,23.3823,VALID,34,VALID,0.442187,
2009-05-02, 02:41:04,VALID,1009.08,VALID,0,VALID,79.1935,VALID,0,VALID,23.3433,VALID,35,VALID,0.582422,
2009-05-02, 02:42:04,VALID,1009.08,VALID,0,VALID,79.2163,VALID,0,VALID,23.3628,VALID,9,VALID,0.335938,
2009-05-02, 02:43:04,VALID,1009.07,VALID,0,VALID,79.2163,VALID,0,VALID,23.361,VALID,9,VALID,0.16875,
2009-05-02, 02:44:04,VALID,1009.06,VALID,0,VALID,79.2087,VALID,0,VALID,23.3628,VALID,9,VALID,0.162109,
2009-05-02, 02:45:04,VALID,1009.03,VALID,0,VALID,79.224,VALID,0,VALID,23.3628,VALID,9,VALID,0,
2009-05-02, 02:46:04,VALID,1009.01,VALID,0,VALID,79.224,VALID,0,VALID,23.3628,VALID,9,VALID,0,
2009-05-02, 02:47:04,VALID,1008.95,VALID,0,VALID,79.2316,VALID,0,VALID,23.3433,VALID,9,VALID,0,
2009-05-02, 02:48:04,VALID,1008.94,VALID,0,VALID,79.2316,VALID,0,VALID,23.3238,VALID,9,VALID,0,
2009-05-02, 02:49:04,VALID,1008.93,VALID,0,VALID,79.224,VALID,0,VALID,23.3628,VALID,9,VALID,0,
2009-05-02, 02:50:04,VALID,1008.91,VALID,0,VALID,79.224,VALID,0,VALID,23.322,VALID,9,VALID,0.0355469,
2009-05-02, 02:51:04,VALID,1008.87,VALID,0,VALID,79.2316,VALID,0,VALID,23.3433,VALID,9,VALID,0.339453,
2009-05-02, 02:52:04,VALID,1008.89,VALID,0,VALID,79.224,VALID,0,VALID,23.3238,VALID,9,VALID,0.269922,
2009-05-02, 02:53:04,VALID,1008.87,VALID,0,VALID,79.2316,VALID,0,VALID,23.2848,VALID,9,VALID,0.227734,
2009-05-02, 02:54:04,VALID,1008.89,VALID,0,VALID,79.2545,VALID,0,VALID,23.2848,VALID,9,VALID,0.247656,
2009-05-02, 02:55:04,VALID,1008.87,VALID,0,VALID,79.2392,VALID,0,VALID,23.2654,VALID,9,VALID,0.24375,
2009-05-02, 02:56:04,VALID,1008.88,VALID,0,VALID,79.2316,VALID,0,VALID,23.2848,VALID,9,VALID,0.278516,
2009-05-02, 02:57:04,VALID,1008.87,VALID,0,VALID,79.2087,VALID,0,VALID,23.2831,VALID,9,VALID,0.0683594,
2009-05-02, 02:58:04,VALID,1008.87,VALID,0,VALID,79.224,VALID,0,VALID,23.3043,VALID,9,VALID,0,
2009-05-02, 02:59:04,VALID,1008.85,VALID,0,VALID,79.224,VALID,0,VALID,23.3043,VALID,9,VALID,0,
2009-05-02, 03:00:04,VALID,1008.8,VALID,0,VALID,79.2316,VALID,0,VALID,23.3238,VALID,9,VALID,0,
2009-05-02, 03:01:04,VALID,1008.83,VALID,0,VALID,79.2316,VALID,0,VALID,23.2831,VALID,9,VALID,0,
2009-05-02, 03:02:04,VALID,1008.8,VALID,0,VALID,79.2163,VALID,0.105969,VALID,23.3238,VALID,9,VALID,0,
2009-05-02, 03:03:04,VALID,1008.78,VALID,0,VALID,79.2392,VALID,0,VALID,23.3433,VALID,9,VALID,0,
2009-05-02, 03:04:04,VALID,1008.77,VALID,0,VALID,79.224,VALID,0,VALID,23.3433,VALID,9,VALID,0,
2009-05-02, 03:05:04,VALID,1008.79,VALID,0,VALID,79.224,VALID,0,VALID,23.322,VALID,9,VALID,0,
2009-05-02, 03:06:04,VALID,1008.78,VALID,0,VALID,79.224,VALID,0,VALID,23.3628,VALID,9,VALID,0,
2009-05-02, 03:07:04,VALID,1008.81,VALID,0,VALID,79.2392,VALID,0,VALID,23.3628,VALID,9,VALID,0,
2009-05-02, 03:08:04,VALID,1008.8,VALID,0,VALID,79.2468,VALID,0,VALID,23.3628,VALID,9,VALID,0,
2009-05-02, 03:09:04,VALID,1008.79,VALID,0,VALID,79.2087,VALID,0,VALID,23.4017,VALID,9,VALID,0,
2009-05-02, 03:10:04,VALID,1008.78,VALID,0,VALID,79.1706,VALID,0,VALID,23.4407,VALID,10,VALID,0,
2009-05-02, 03:11:04,VALID,1008.79,VALID,0,VALID,79.1706,VALID,0,VALID,23.4407,VALID,29,VALID,0,
2009-05-02, 03:12:04,VALID,1008.8,VALID,0,VALID,79.1935,VALID,0,VALID,23.4407,VALID,26,VALID,0.177344,
2009-05-02, 03:13:04,VALID,1008.82,VALID,0,VALID,79.1858,VALID,0,VALID,23.4407,VALID,31,VALID,0.421094,
2009-05-02, 03:14:04,VALID,1008.81,VALID,0,VALID,79.2087,VALID,0,VALID,23.4212,VALID,31,VALID,0.344922,
2009-05-02, 03:15:04,VALID,1008.87,VALID,0,VALID,79.2316,VALID,0,VALID,23.3628,VALID,32,VALID,0.409766,
2009-05-02, 03:16:04,VALID,1008.87,VALID,0,VALID,79.2392,VALID,0,VALID,23.3628,VALID,40,VALID,0.445313,
2009-05-02, 03:17:04,VALID,1008.87,VALID,0,VALID,79.2392,VALID,0,VALID,23.3433,VALID,41,VALID,0.382031,
2009-05-02, 03:18:04,VALID,1008.89,VALID,0,VALID,79.2316,VALID,0,VALID,23.3628,VALID,41,VALID,0.504297,
2009-05-02, 03:19:04,VALID,1008.9,VALID,0,VALID,79.2163,VALID,0,VALID,23.3433,VALID,41,VALID,0.586328,
2009-05-02, 03:20:04,VALID,1008.92,VALID,0,VALID,79.224,VALID,0,VALID,23.3238,VALID,41,VALID,0.508984,
2009-05-02, 03:21:04,VALID,1008.91,VALID,0,VALID,79.2468,VALID,0,VALID,23.3043,VALID,36,VALID,0.591016,
2009-05-02, 03:22:04,VALID,1008.88,VALID,0,VALID,79.2468,VALID,0,VALID,23.2636,VALID,43,VALID,0.910937,
2009-05-02, 03:23:04,VALID,1008.91,VALID,0,VALID,79.2773,VALID,0,VALID,23.2264,VALID,20,VALID,0.496094,
2009-05-02, 03:24:04,VALID,1008.92,VALID,0,VALID,79.2926,VALID,0,VALID,23.1857,VALID,24,VALID,0.712891,
2009-05-02, 03:25:04,VALID,1008.97,VALID,0,VALID,79.2773,VALID,0,VALID,23.1874,VALID,7,VALID,0.722266,
2009-05-02, 03:26:04,VALID,1008.96,VALID,0,VALID,79.2773,VALID,0,VALID,23.1679,VALID,4,VALID,0.557422,
2009-05-02, 03:27:04,VALID,1008.99,VALID,0,VALID,79.3002,VALID,0,VALID,23.1485,VALID,23,VALID,0.159375,
2009-05-02, 03:28:04,VALID,1008.98,VALID,0,VALID,79.2926,VALID,0,VALID,23.129,VALID,19,VALID,0.230078,
2009-05-02, 03:29:04,VALID,1008.97,VALID,0,VALID,79.2926,VALID,0,VALID,23.129,VALID,19,VALID,0,
2009-05-02, 03:30:04,VALID,1008.96,VALID,0,VALID,79.3002,VALID,0,VALID,23.0883,VALID,19,VALID,0.0605469,
2009-05-02, 03:31:04,VALID,1008.94,VALID,0,VALID,79.3078,VALID,0,VALID,23.09,VALID,28,VALID,0.105469,
2009-05-02, 03:32:04,VALID,1008.92,VALID,0,VALID,79.3231,VALID,0,VALID,23.09,VALID,28,VALID,0,
2009-05-02, 03:33:04,VALID,1008.93,VALID,0,VALID,79.3002,VALID,0,VALID,23.0705,VALID,28,VALID,0,
2009-05-02, 03:34:04,VALID,1008.9,VALID,0,VALID,79.3155,VALID,0,VALID,23.0705,VALID,32,VALID,0.253125,
2009-05-02, 03:35:04,VALID,1008.89,VALID,0,VALID,79.3155,VALID,0,VALID,23.0705,VALID,32,VALID,0,
2009-05-02, 03:36:04,VALID,1008.9,VALID,0,VALID,79.346,VALID,0,VALID,23.0511,VALID,32,VALID,0,
2009-05-02, 03:37:04,VALID,1008.92,VALID,0,VALID,79.3383,VALID,0,VALID,23.0511,VALID,32,VALID,0,
2009-05-02, 03:38:04,VALID,1008.92,VALID,0,VALID,79.3383,VALID,0,VALID,23.0511,VALID,32,VALID,0,
2009-05-02, 03:39:04,VALID,1008.92,VALID,0,VALID,79.3612,VALID,0,VALID,23.0705,VALID,32,VALID,0,
2009-05-02, 03:40:04,VALID,1008.91,VALID,0,VALID,79.346,VALID,0,VALID,23.0511,VALID,32,VALID,0,
2009-05-02, 03:41:04,VALID,1008.91,VALID,0,VALID,79.3536,VALID,0,VALID,23.0511,VALID,32,VALID,0,
2009-05-02, 03:42:04,VALID,1008.89,VALID,0,VALID,79.3383,VALID,0,VALID,23.0511,VALID,32,VALID,0,
2009-05-02, 03:43:04,VALID,1008.9,VALID,0,VALID,79.346,VALID,0,VALID,23.0511,VALID,32,VALID,0,
2009-05-02, 03:44:04,VALID,1008.92,VALID,0,VALID,79.3612,VALID,0,VALID,23.0511,VALID,32,VALID,0,
2009-05-02, 03:45:04,VALID,1008.91,VALID,0,VALID,79.3536,VALID,0,VALID,23.0316,VALID,32,VALID,0,
2009-05-02, 03:46:04,VALID,1008.94,VALID,0,VALID,79.3612,VALID,0,VALID,23.0316,VALID,32,VALID,0,
2009-05-02, 03:47:04,VALID,1008.93,VALID,0,VALID,79.3612,VALID,0,VALID,23.0103,VALID,32,VALID,0,
2009-05-02, 03:48:04,VALID,1008.94,VALID,0,VALID,79.3536,VALID,0,VALID,23.0528,VALID,32,VALID,0,
2009-05-02, 03:49:04,VALID,1008.95,VALID,0,VALID,79.3765,VALID,0,VALID,23.0316,VALID,32,VALID,0,
2009-05-02, 03:50:04,VALID,1008.94,VALID,0,VALID,79.3612,VALID,0,VALID,23.0103,VALID,32,VALID,0,
2009-05-02, 03:51:04,VALID,1008.95,VALID,0,VALID,79.3612,VALID,0,VALID,23.0121,VALID,32,VALID,0,
2009-05-02, 03:52:04,VALID,1008.96,VALID,0,VALID,79.0943,VALID,0,VALID,23.0121,VALID,32,VALID,0,
2009-05-02, 03:53:04,VALID,1008.93,VALID,0,VALID,79.0791,VALID,0,VALID,23.0121,VALID,32,VALID,0,